Regional Weather Roundup
Issued by NWS

Home | Current Version | Previous Version | Graphics & Text | Print | Product List | Glossary Off
Versions: 1 2 3 4 5 6 7 8 9 10 11 12 13 14 15 16 17 18 19 20 21 22 23 24 25 26 27 28 29 30 31 32 33 34 35 36 37 38 39 40 41 42 43 44 45 46 47 48 49 50

000
ASUS43 KTOP 242159
RWRKS

WEATHER ROUNDUP FOR KANSAS
NATIONAL WEATHER SERVICE GOODLAND KS
500 PM CDT TUE MAY 24 2016

NOTE:  "FAIR" INDICATES FEW OR NO CLOUDS BELOW 12,000 FEET WITH NO
SIGNIFICANT WEATHER AND/OR OBSTRUCTIONS TO VISIBILITY.

KSZ001>006-013>018-027>032-041>047-242300-
NORTHWEST KANSAS

CITY           SKY/WX    TMP DP  RH WIND       PRES   REMARKS
GOODLAND       MOSUNNY   76  58  53 S15G21    29.83F
HAYS           MOSUNNY   81  63  54 SE18G26   29.83F
HILL CITY      PTSUNNY   80  62  54 SE18      29.84F
RUSSELL        MOSUNNY   79  65  62 SE17      29.83F
$$

KSZ061>065-074>080-084>089-242300-
SOUTHWEST KANSAS

CITY           SKY/WX    TMP DP  RH WIND       PRES   REMARKS
DODGE CITY     MOSUNNY   82  69  64 SE20G31   29.78F
ELKHART          N/A     87  43  21 SW9         N/A
GARDEN CITY    MOSUNNY   88  65  46 S15G26    29.76F
GREAT BEND     PTSUNNY   84  66  54 SE21      29.81F
LIBERAL        SUNNY     88  55  33 S16       29.78F
$$

KSZ066>073-081>083-090>101-242300-
SOUTHEAST KANSAS

CITY           SKY/WX    TMP DP  RH WIND       PRES   REMARKS
CHANUTE        CLOUDY    80  71  74 S12       29.88F
COFFEYVILLE    CLOUDY    80  71  74 S8        29.89F
HUTCHINSON     CLOUDY    82  71  69 SE13G23   29.85F
MEDICINE LODGE   N/A     85  70  60 SE16G25   29.80F
NEWTON         MOSUNNY   81  66  61 SE14G22   29.90F
PARSONS        CLOUDY    81  72  74 S7        29.90F
WICHITA INTL   PTSUNNY   81  71  71 SE17      29.84F
WICHITA JABRA  PTSUNNY   78  71  79 SE14G22   29.86F
WICHITA MCCONL MOSUNNY   81  72  74 S18G26    29.86F
WINFIELD       CLOUDY    82  70  66 SE18G25   29.86F
$$

KSZ007>012-019>026-033>040-048>060-102>105-242300-
NORTHEAST KANSAS

CITY           SKY/WX    TMP DP  RH WIND       PRES   REMARKS
CONCORDIA      SUNNY     80  61  52 S17       29.85F
EMPORIA        SUNNY     80  68  66 S15       29.87F
LAWRENCE       SUNNY     80  67  64 S12G20    29.87S
MANHATTAN      SUNNY     82  63  52 S15       29.85F
OLATHE IND     SUNNY     78  66  66 S10       29.90R
OLATHE EXE     SUNNY     76  65  68 S13       29.89R
SALINA         MOSUNNY   83  66  56 S17       29.85F
TOPEKA BILLARD SUNNY     80  66  62 S12       29.86F
TOPEKA FORBES  SUNNY     81  67  62 S15       29.87S
$$



USA.gov is the U.S. government's official web portal to all federal, state and local government web resources and services.